Location: Mentone
(34.5413°N, 85.5351°W)
Time: 20:07:07
(UTC-05:00)

Cosmos 2150 Rocket - Visible Passes

Search period start: 28 March 2015 00:00
Search period end: 07 April 2015 00:00
Orbit: 750 x 808 km, 74.0° (Epoch: 27 March)

Date Brightness Start Highest point End Pass type
(mag) Time Alt. Az. Time Alt. Az. Time Alt. Az.
28 Mar 6.1 21:16:29 10° NNE 21:17:45 15° NNE 21:17:45 15° NNE visible
28 Mar 7.0 22:58:09 10° NW 22:58:16 11° NW 22:58:16 11° NW visible
29 Mar 6.1 20:43:57 10° NNE 20:45:01 12° NE 20:45:01 12° NE visible
29 Mar 6.4 22:24:11 10° NNW 22:25:32 18° NNW 22:25:32 18° NNW visible
30 Mar 5.6 21:50:28 10° NNW 21:52:50 28° NNW 21:52:50 28° NNW visible
31 Mar 5.0 21:16:57 10° N 21:20:11 34° NNE 21:20:11 34° NNE visible
01 Apr 5.0 20:43:42 10° N 20:47:35 28° NE 20:47:35 28° NE visible
01 Apr 6.3 22:26:02 10° NW 22:28:07 20° WNW 22:28:07 20° WNW visible
02 Apr 5.5 20:10:47 10° NNE 20:14:12 18° ENE 20:15:02 18° ENE visible
02 Apr 5.2 21:51:52 10° NNW 21:55:34 38° WNW 21:55:34 38° WNW visible
03 Apr 5.9 19:38:57 10° NE 19:40:10 11° ENE 19:41:45 10° ENE visible
03 Apr 4.0 21:18:01 10° NNW 21:23:06 77° W 21:23:06 77° W visible
04 Apr 3.9 20:44:24 10° N 20:49:32 63° ENE 20:50:41 49° SE visible
04 Apr 6.7 22:29:26 10° WNW 22:31:14 12° W 22:31:14 12° W visible
05 Apr 4.6 20:11:00 10° N 20:15:46 38° ENE 20:18:22 23° ESE visible
05 Apr 6.1 21:54:01 10° NW 21:57:52 20° W 21:58:55 19° WSW visible
06 Apr 5.2 19:37:52 10° NNE 19:41:55 23° ENE 19:46:08 10° ESE visible
06 Apr 5.4 21:19:38 10° NW 21:24:19 34° WSW 21:26:41 23° SSW visible
